Change the Weather History Date:

Tuesday, November 27, 2012

  Actual Average Record
Temperature  
Mean Temperature 17 °F -  
Max Temperature 23 °F - - ()
Min Temperature 11 °F - - ()
Degree Days  
Heating Degree Days 48    
Moisture  
Dew Point 12 °F    
Average Humidity 79    
Maximum Humidity 85    
Minimum Humidity 66    
Precipitation  
Precipitation 0.05 in - - ()
Sea Level Pressure  
Sea Level Pressure 30.23 in    
Wind  
Wind Speed 6 mph ()    
Max Wind Speed 13 mph    
Max Gust Speed 24 mph    
T = Trace of Precipitation, MM = Missing Value Source: Averaged Metar Reports

Daily Weather History Graph

Daily Weather History Graph

Search for Another Location

Airport or City:

Trip Planner

Search our weather history database for the weather conditions in past years. The results will help you decide how hot, cold, wet, or windy it might be!

Date:

Astronomy

Nov. 27, 2012 Rise Set
Actual Time 8:19 AM MST 4:40 PM MST
Civil Twilight 7:41 AM MST 5:18 PM MST
Nautical Twilight 6:59 AM MST 6:00 PM MST
Astronomical Twilight 6:19 AM MST 6:40 PM MST
Moon 4:16 PM MST 7:25 AM MST
Length of Visible Light 9h 37m
Length of Day
8h 21m
Waxing Gibbous, 99% of the Moon is Illuminated
Nov 27
Waxing Gibbous
Nov 28
Full
Dec 6
Last Quarter
Dec 13
New
Dec 19
First Quarter

Hourly Weather History & Observations

Time (MST) Temp. Windchill Dew Point Humidity Pressure Visibility Wind Dir Wind Speed Gust Speed Precip Events Conditions
12:00 AM 13.6 °F - 9.0 °F 82% 30.26 in - SSE 2.3 mph - N/A   Unknown
1:00 AM 11.8 °F 5.7 °F 8.2 °F 85% 30.27 in - South 3.5 mph - N/A   Unknown
2:00 AM 12.9 °F 5.2 °F 8.2 °F 82% 30.25 in - WSW 4.6 mph - N/A   Unknown
3:00 AM 13.8 °F - 9.1 °F 82% 30.26 in - SSW 2.3 mph - N/A   Unknown
4:00 AM 12.6 °F - 9.0 °F 85% 30.26 in - West 2.3 mph - N/A   Unknown
5:00 AM 14.2 °F - 9.7 °F 82% 30.26 in - ESE 1.2 mph - N/A   Unknown
6:00 AM 14.4 °F 4.3 °F 10.2 °F 84% 30.26 in - SW 6.9 mph - N/A   Unknown
7:00 AM 15.3 °F 4.4 °F 10.8 °F 82% 30.26 in - SW 8.1 mph - N/A   Unknown
8:00 AM 15.8 °F 4.2 °F 10.9 °F 81% 30.26 in - SW 9.2 mph - N/A   Unknown
9:00 AM 16.2 °F 4.7 °F 10.6 °F 79% 30.27 in - WSW 9.2 mph - N/A   Unknown
10:00 AM 17.4 °F 8.0 °F 11.5 °F 78% 30.27 in - WSW 6.9 mph - N/A   Unknown
11:00 AM 18.7 °F 8.6 °F 11.8 °F 75% 30.28 in - WSW 8.1 mph - N/A   Unknown
1:00 PM 22.3 °F 16.1 °F 14.9 °F 73% 30.23 in - WSW 4.6 mph - N/A   Unknown
2:00 PM 23.9 °F 13.5 °F 14.2 °F 66% 30.20 in - SW 10.4 mph - N/A   Unknown
3:00 PM 22.8 °F 12.9 °F 16.0 °F 75% 30.20 in - WSW 9.2 mph 17.3 mph N/A   Unknown
4:00 PM 22.8 °F 10.9 °F 16.2 °F 76% 30.19 in - SW 12.7 mph 23.0 mph N/A   Unknown
5:00 PM 21.6 °F 9.3 °F 15.6 °F 78% 30.19 in - SW 12.7 mph 20.7 mph N/A   Unknown
6:00 PM 20.7 °F 8.8 °F 14.9 °F 78% 30.19 in - SW 11.5 mph 21.9 mph N/A   Unknown
7:00 PM 19.8 °F 9.1 °F 14.5 °F 80% 30.19 in - SW 9.2 mph 19.6 mph N/A   Unknown
8:00 PM 19.0 °F 9.0 °F 14.0 °F 81% 30.20 in - WSW 8.1 mph - N/A   Unknown
9:00 PM 19.4 °F 6.6 °F 13.6 °F 78% 30.20 in - SW 12.7 mph 20.7 mph N/A   Unknown
10:00 PM 18.5 °F 5.5 °F 12.9 °F 79% 30.20 in - SW 12.7 mph 24.2 mph N/A   Unknown
11:00 PM 17.6 °F 5.0 °F 12.0 °F 79% 30.19 in - SW 11.5 mph 17.3 mph N/A   Unknown